Location: Glen Martin
(34.1458°N, 116.9856°W)
Time: 14:15:23
(UTC+00:00)

Daily predictions for brighter satellites

Satellite Brightness Start Highest point End
(mag) Time Altitude Azimuth Time Altitude Azimuth Time Altitude Azimuth
ALOS 4.0 12:00:10 10° NNE 12:04:22 32° E 12:08:32 10° SSE
Cosmos 1263 4.0 12:07:09 10° N 12:10:14 81° W 12:13:12 10° S
Cosmos 1464 Rocket 4.1 12:04:20 10° S 12:10:41 77° W 12:17:05 10° N
Cosmos 1900 4.3 12:07:25 10° SSW 12:12:16 74° WNW 12:17:13 10° NNE
Cosmos 2034 Rocket 4.2 12:09:27 10° S 12:15:36 82° E 12:21:46 10° N
